Volver al catálogo

GAOFEN 3 02

ActivoCienciaSSO
NORAD 49495·PAYLOAD·🇨🇳 China

Lanzado Nov 22, 2021 desde Jiuquan Satellite Launch Center

Loading…

Próximos Pases (próximas 24 horas)

TLE

ActualizadoSource: Space-Track

Época: Sep 14, 2026, 14:46 UTC

1 49495U 21109A   26257.61594086 -.00000099  00000-0 -16791-4 0  9993
2 49495  98.4121 264.4559 0003956  80.2859 279.8778 14.42216446253202

Sigue GAOFEN 3 02 en tiempo real con AllMySat

Download on the App Store